Content
SEND FEEDBACK

Daily
Averages
Monthly
Summary
United States of America

BERKELEY, MISSOURI


Home > North America > United States > Missouri
Elevation: 564 feet     Latitude: 38 45N     Longitude: 090 22W

WEATHER
 
SELECT A DAY
Number of Records: 203,517;   Date Range: 1/1/95 - 8/28/14
 
SHARE

PRINT THIS DATA

[ ← Previous Day ]
WEATHER ALMANAC - FEBRUARY 8, 2013
[ Next Day → ]
[ °C ]   °F
Weather ElementAverageHighLow
Temperature35.3 °F37.9 °F (12:51 am)30.9 °F (11:51 pm)
Dewpoint28.4 °F34 °F (12:51 am)24.1 °F (11:51 pm)
Humidity76.6 %87 % (2:09 am)70 % (12:51 pm)
Barometer30.29 in30.41 in (4:51 pm)30.08 in (12:51 am)
Wind Speed10.5 mph17.3 mph (4:18 am)
Wind Gust24.2 mph (2:51 am)
Weather ElementAverage
Visibility7.6 mi
Wind DirectionWSW (234.1 °)

Weather ElementTotal
Precipitation---
Heating Degree Days30.6 (Base 65)
Averaged from 29 records on February 8, 2013
WEATHER CONDITIONS BREAKOUT
WIND DIRECTION BREAKOUT
WEATHER BY HOUR - FEBRUARY 8, 2013
[ °C ]   °F
Local TimeTemperatureDewpointHumidityBarometerVisibilityWind DirectionWind SpeedGust SpeedPrecipitationEventsConditions
12:51 AM37.9 °F34.0 °F86 %30.08 in3.0 miNW (320°)16.1 mph23.0 mphOvercast
1:51 AM37.0 °F33.1 °F86 %30.12 in3.0 miNW (320°)16.1 mph21.9 mphOvercast
2:09 AM37.4 °F33.8 °F87 %30.10 in2.5 miNW (310°)13.8 mphOvercast
2:51 AM36.0 °F32.0 °F86 %30.13 in2.5 miNW (320°)16.1 mph24.2 mphOvercast
3:51 AM36.0 °F32.0 °F86 %30.15 in2.5 miNW (320°)12.7 mphOvercast
4:18 AM35.6 °F30.2 °F81 %30.15 in4.0 miNNW (330°)17.3 mph23.0 mphHaze
4:51 AM35.1 °F30.0 °F82 %30.19 in4.0 miNorth (360°)15.0 mph21.9 mphHaze
5:26 AM35.6 °F30.2 °F81 %30.19 in5.0 miNorth (350°)16.1 mphHaze
5:51 AM35.1 °F30.0 °F82 %30.22 in6.0 miNorth (350°)10.4 mphHaze
6:51 AM35.1 °F28.0 °F76 %30.26 in8.0 miNorth (350°)15.0 mph20.7 mphOvercast
7:51 AM35.1 °F28.0 °F76 %30.29 in7.0 miNorth (350°)12.7 mphOvercast
8:30 AM35.6 °F28.4 °F75 %30.30 in8.0 miNNW (330°)11.5 mphOvercast
8:51 AM35.1 °F28.0 °F76 %30.32 in9.0 miNNW (340°)12.7 mphOvercast
9:51 AM35.1 °F28.0 °F76 %30.34 in9.0 miNNW (340°)10.4 mphOvercast
10:51 AM36.0 °F28.0 °F73 %30.35 in10.0 miNNW (340°)10.4 mphOvercast
11:51 AM36.0 °F28.0 °F73 %30.36 in10.0 miNorth (350°)8.1 mphOvercast
12:51 PM37.0 °F28.0 °F70 %30.35 in9.0 miNNW (340°)8.1 mphOvercast
1:51 PM37.0 °F28.0 °F70 %30.34 in10.0 miNNE (20°)9.2 mphOvercast
2:51 PM37.0 °F28.0 °F70 %30.36 in9.0 miNorth (360°)6.9 mphOvercast
3:51 PM36.0 °F27.0 °F70 %30.38 in10.0 miNorth (10°)4.6 mphOvercast
4:51 PM36.0 °F27.0 °F70 %30.41 in10.0 miCalmOvercast
5:51 PM36.0 °F27.0 °F70 %30.37 in10.0 miNorth (10°)8.1 mphOvercast
6:51 PM35.1 °F27.0 °F72 %30.38 in10.0 miNE (50°)8.1 mphOvercast
7:51 PM34.0 °F26.1 °F73 %30.39 in10.0 miEast (80°)3.5 mphOvercast
8:51 PM33.1 °F26.1 °F75 %30.40 in10.0 miEast (80°)9.2 mphOvercast
9:51 PM33.1 °F25.0 °F72 %30.40 in10.0 miESE (110°)8.1 mphOvercast
10:40 PM32.0 °F24.8 °F75 %30.37 in9.0 miEast (100°)9.2 mphOvercast
10:51 PM32.0 °F25.0 °F75 %30.40 in9.0 miESE (110°)6.9 mphOvercast
11:51 PM30.9 °F24.1 °F76 %30.39 in10.0 miSE (140°)9.2 mphOvercast
Hourly data recorded from KSTL, located miles away from Berkeley, Missouri







STORIES FROM OUR PARTNERS